Location: ?????
(55.8833°N, 37.6500°E)
Time: 08:52:56
(UTC+00:00)

STARLINK-1059 - Pass Details

Date: 27 February 2020
Orbit: 549 x 550 km, 53.0° (Epoch: 10 April)

Event Time Altitude Azimuth Distance (km) Brightness Sun altitude
Rises 17:27:34 0° 259° (W) 2,719 8.2 -21.5°
Reaches altitude 10° 17:29:49 10° 256° (WSW) 1,826 7.1 -21.8°
Enters shadow 17:33:44 58° 189° (S) 647 3.8 -22.3°
